1530392400.4,61978,16.31,73372.8,-2.75,-3.35,-3.35,0,*51
1530392401.62,61979,16.31,73376.3,-2.75,-3.39,-3.39,0,*50
1530392402.89,61980,16.31,73384.3,-2.77,-3.43,-3.43,0,*54
1530392404.12,61981,16.31,73392.0,-2.75,-3.35,-3.27,0,*54
1530392405.35,61982,16.31,73392.0,-2.75,-3.35,-3.35,0,*54
1530392406.58,61983,16.31,73406.3,-2.75,-3.39,-3.39,0,*55
1530392407.81,61984,16.31,73410.8,-2.75,-3.27,-3.35,0,*51
1530392409.03,61985,16.31,73402.0,-2.75,-3.35,-3.35,0,*53
1530392410.3,61986,16.31,73390.5,-2.75,-3.47,-3.47,0,*50
1530392411.58,61987,16.31,73396.0,-2.75,-3.47,-3.47,0,*51
1530392412.8,61988,16.31,73396.0,-2.75,-3.39,-3.35,0,*52
1530392414.07,61989,16.31,73392.0,-2.77,-3.51,-3.51,0,*5D
1530392415.32,61990,16.31,73398.3,-2.77,-3.43,-3.39,0,*58
1530392416.54,61991,16.31,73384.8,-2.75,-3.39,-3.39,0,*56
1530392417.77,61992,16.31,73398.5,-2.75,-3.35,-3.39,0,*59
1530392419.0,61993,16.31,73392.3,-2.75,-3.39,-3.35,0,*58
1530392420.25,61994,16.31,73388.5,-2.77,-3.51,-3.39,0,*5F
1530392421.47,61995,16.31,73386.0,-2.75,-3.39,-3.35,0,*5E
1530392422.74,61996,16.31,73380.8,-2.75,-3.51,-3.47,0,*56
1530392423.99,61997,16.31,73386.3,-2.75,-3.39,-3.47,0,*59
1530392425.24,61998,16.31,73390.0,-2.75,-3.47,-3.35,0,*5A
1530392426.49,61999,16.31,73394.3,-2.75,-3.47,-3.39,0,*57
1530392427.72,62000,16.31,73394.0,-2.75,-3.35,-3.35,0,*54
1530392428.95,62001,16.31,73388.0,-2.75,-3.35,-3.35,0,*55
1530392430.18,62002,16.31,73394.0,-2.75,-3.35,-3.35,0,*56
1530392431.41,62003,16.31,73394.8,-2.75,-3.35,-3.35,0,*57
1530392432.64,62004,16.31,73398.0,-2.75,-3.35,-3.35,0,*50
1530392433.86,62005,16.31,73404.3,-2.75,-3.35,-3.39,0,*5D
1530392435.11,62006,16.31,73400.0,-2.77,-3.43,-3.39,0,*5D
1530392436.35,62007,16.31,73398.5,-2.73,-3.51,-3.51,0,*55
1530392437.6,62008,16.31,73398.0,-2.73,-3.47,-3.51,0,*5D
1530392438.87,62009,16.31,73400.0,-2.75,-3.47,-3.47,0,*5D
1530392440.09,62010,16.31,73400.0,-2.75,-3.39,-3.39,0,*55
1530392441.32,62011,16.31,73400.3,-2.75,-3.39,-3.39,0,*54
1530392442.54,62012,16.31,73400.3,-2.77,-3.39,-3.39,0,*55
1530392443.81,62013,16.31,73396.0,-2.75,-3.55,-3.55,0,*56
1530392445.08,62014,16.31,73396.3,-2.75,-3.51,-3.55,0,*55
1530392446.33,62015,16.31,73400.3,-2.75,-3.39,-3.47,0,*59
1530392447.6,62016,16.31,73402.8,-2.75,-3.51,-3.51,0,*53
1530392448.87,62017,16.31,73400.5,-2.75,-3.51,-3.55,0,*56
1530392450.11,62018,16.31,73396.8,-2.73,-3.55,-3.55,0,*5B
1530392451.37,62019,16.31,73394.0,-2.75,-3.67,-3.63,0,*58
1530392452.64,62020,16.31,73400.5,-2.75,-3.55,-3.55,0,*56
1530392453.91,62021,16.31,73398.3,-2.77,-3.51,-3.51,0,*55
1530392455.16,62022,16.31,73394.8,-2.75,-3.47,-3.39,0,*5D
1530392456.39,62023,16.31,73400.8,-2.75,-3.39,-3.39,0,*55
1530392457.63,62024,16.31,73392.8,-2.73,-3.55,-3.55,0,*54
1530392458.89,62025,16.31,73392.5,-2.77,-3.59,-3.67,0,*5C
1530392460.14,62026,16.31,73390.3,-2.75,-3.39,-3.47,0,*59
1530392461.36,62027,16.31,73394.0,-2.75,-3.39,-3.39,0,*51
1530392462.61,62028,16.31,73394.5,-2.75,-3.39,-3.47,0,*57
1530392463.88,62029,16.31,73402.8,-2.77,-3.51,-3.51,0,*5D
1530392465.14,62030,16.31,73400.5,-2.77,-3.51,-3.55,0,*51
1530392466.41,62031,16.31,73404.8,-2.75,-3.47,-3.47,0,*56
1530392467.68,62032,16.31,73402.8,-2.75,-3.47,-3.47,0,*55
1530392468.93,62033,16.31,73400.0,-2.77,-3.39,-3.43,0,*5B
1530392470.19,62034,16.31,73392.3,-2.77,-3.55,-3.51,0,*55
1530392471.46,62035,16.31,73384.3,-2.77,-3.51,-3.51,0,*50
1530392472.74,62036,16.31,73392.3,-2.75,-3.47,-3.51,0,*56
1530392474.0,62037,16.31,73384.8,-2.77,-3.55,-3.55,0,*52
1530392475.26,62038,16.31,73384.3,-2.75,-3.67,-3.63,0,*5B
1530392476.51,62039,16.31,73386.5,-2.77,-3.79,-3.71,0,*54
1530392477.78,62040,16.31,73380.5,-2.75,-3.55,-3.55,0,*50
1530392479.05,62041,16.31,73382.3,-2.77,-3.55,-3.59,0,*5F
1530392480.29,62042,16.31,73390.3,-2.75,-3.39,-3.51,0,*5C
1530392481.56,62043,16.31,73402.3,-2.77,-3.51,-3.51,0,*51
1530392482.82,62044,16.31,73410.8,-2.75,-3.47,-3.39,0,*5D
1530392484.08,62045,16.31,73398.8,-2.75,-3.47,-3.47,0,*55
1530392485.31,62046,16.31,73394.5,-2.75,-3.39,-3.35,0,*5A
1530392486.58,62047,16.31,73392.5,-2.77,-3.43,-3.51,0,*56
1530392487.83,62048,16.31,73388.0,-2.75,-3.51,-3.39,0,*56
1530392489.09,62049,16.31,73380.8,-2.77,-3.55,-3.55,0,*5B
1530392490.35,62050,16.31,73378.0,-2.77,-3.55,-3.55,0,*53
1530392491.62,62051,16.31,73370.0,-2.77,-3.55,-3.55,0,*52
1530392492.89,62052,16.31,73366.5,-2.75,-3.47,-3.51,0,*54
1530392494.15,62053,16.31,73378.3,-2.77,-3.55,-3.55,0,*50
1530392495.42,62054,16.31,73378.8,-2.77,-3.51,-3.55,0,*53
1530392496.68,62055,16.31,73382.8,-2.77,-3.55,-3.55,0,*56
1530392497.94,62056,16.31,73398.8,-2.77,-3.55,-3.51,0,*51
1530392499.21,62057,16.31,73390.8,-2.77,-3.51,-3.43,0,*57
1530392500.47,62058,16.31,73364.8,-2.77,-3.55,-3.55,0,*5B
1530392501.74,62059,16.31,73366.0,-2.77,-3.55,-3.51,0,*5E
1530392503.0,62060,16.31,73362.0,-2.75,-3.67,-3.67,0,*52
1530392504.28,62061,16.31,73364.3,-2.77,-3.59,-3.59,0,*51
1530392505.55,62062,16.31,73360.3,-2.77,-3.59,-3.67,0,*5F
1530392506.79,62063,16.31,73346.3,-2.79,-3.59,-3.59,0,*5D
1530392508.03,62064,16.31,73340.8,-2.79,-3.67,-3.67,0,*5A
1530392509.28,62065,16.31,73346.5,-2.77,-3.71,-3.79,0,*5D
1530392510.49,62066,16.31,73362.0,-2.79,-3.79,-3.79,0,*58
1530392511.73,62067,16.31,73374.8,-2.79,-3.59,-3.67,0,*54
1530392512.98,62068,16.31,73370.8,-2.79,-3.59,-3.59,0,*56
1530392514.23,62069,16.31,73376.3,-2.79,-3.59,-3.59,0,*57
1530392515.5,62070,16.31,73380.3,-2.81,-3.55,-3.59,0,*54
1530392516.74,62071,16.31,73398.3,-2.79,-3.51,-3.43,0,*5D
1530392517.96,62072,16.31,73392.5,-2.79,-3.39,-3.43,0,*50
1530392519.16,62073,16.31,73382.5,-2.79,-3.39,-3.39,0,*5C
1530392520.4,62074,16.31,73382.8,-2.79,-3.55,-3.51,0,*5F
1530392521.65,62075,16.31,73382.8,-2.79,-3.51,-3.43,0,*59
1530392522.85,62076,16.31,73386.5,-2.79,-3.39,-3.39,0,*59
1530392524.07,62077,16.31,73386.3,-2.77,-3.39,-3.39,0,*56
1530392525.34,62078,16.31,73386.3,-2.77,-3.43,-3.43,0,*59
1530392526.6,62079,16.31,73392.0,-2.77,-3.43,-3.43,0,*58
1530392527.83,62080,16.31,73396.5,-2.77,-3.39,-3.39,0,*5E
1530392529.09,62081,16.31,73396.5,-2.77,-3.43,-3.43,0,*5F
1530392530.31,62082,16.31,73400.0,-2.77,-3.39,-3.39,0,*5C
1530392531.54,62083,16.31,73392.3,-2.77,-3.39,-3.39,0,*5D
1530392532.8,62084,16.31,73382.5,-2.77,-3.43,-3.43,0,*5A
1530392534.05,62085,16.31,73382.3,-2.77,-3.43,-3.39,0,*56
1530392535.27,62086,16.31,73378.5,-2.77,-3.39,-3.39,0,*58
1530392536.51,62087,16.31,73392.5,-2.77,-3.31,-3.43,0,*5C
1530392537.76,62088,16.31,73388.5,-2.77,-3.43,-3.39,0,*5B
1530392538.98,62089,16.31,73388.3,-2.77,-3.39,-3.39,0,*57
1530392540.21,62090,16.31,73388.0,-2.77,-3.39,-3.39,0,*5F
1530392541.43,62091,16.31,73386.3,-2.77,-3.39,-3.39,0,*5E
1530392542.69,62092,16.31,73386.8,-2.77,-3.43,-3.43,0,*5D
1530392543.96,62093,16.31,73388.5,-2.77,-3.43,-3.43,0,*5C
1530392545.2,62094,16.31,73388.3,-2.77,-3.31,-3.43,0,*5E
1530392546.43,62095,16.31,73384.5,-2.75,-3.39,-3.35,0,*54
1530392547.66,62096,16.31,73384.0,-2.75,-3.39,-3.39,0,*5B
1530392548.93,62097,16.31,73382.3,-2.77,-3.43,-3.43,0,*58
1530392550.15,62098,16.31,73372.5,-2.75,-3.35,-3.35,0,*55
1530392551.42,62099,16.31,73372.8,-2.77,-3.43,-3.43,0,*56
1530392552.69,62100,16.31,73376.8,-2.75,-3.55,-3.51,0,*51
1530392553.96,62101,16.31,73376.0,-2.75,-3.47,-3.47,0,*54
1530392555.23,62102,16.31,73386.8,-2.77,-3.51,-3.55,0,*51
1530392556.49,62103,16.31,73386.3,-2.77,-3.51,-3.43,0,*57
1530392557.76,62104,16.31,73364.0,-2.77,-3.55,-3.55,0,*53
1530392559.02,62105,16.31,73366.0,-2.77,-3.59,-3.67,0,*5F
1530392560.29,62106,16.31,73360.5,-2.75,-3.47,-3.55,0,*50
1530392561.57,62107,16.31,73364.5,-2.75,-3.51,-3.51,0,*52
1530392562.83,62108,16.25,73366.8,-2.77,-3.55,-3.51,0,*5B
1530392564.1,62109,16.31,73374.3,-2.77,-3.51,-3.51,0,*5E
1530392565.36,62110,16.31,73366.0,-2.77,-3.43,-3.51,0,*55
1530392566.61,62111,16.31,73366.5,-2.77,-3.39,-3.51,0,*59
1530392567.86,62112,16.31,73372.3,-2.77,-3.51,-3.39,0,*5A
1530392569.1,62113,16.31,73374.8,-2.77,-3.39,-3.43,0,*58
1530392570.37,62114,16.31,73376.8,-2.77,-3.55,-3.51,0,*56
1530392571.63,62115,16.31,73384.5,-2.77,-3.55,-3.51,0,*57
1530392572.89,62116,16.31,73382.0,-2.77,-3.55,-3.55,0,*50
1530392574.16,62117,16.31,73364.5,-2.77,-3.51,-3.55,0,*55
1530392575.42,62118,16.25,73364.0,-2.77,-3.55,-3.55,0,*5E
1530392576.68,62119,16.31,73368.8,-2.77,-3.51,-3.55,0,*5B
1530392577.94,62120,16.31,73366.0,-2.77,-3.55,-3.55,0,*55
1530392579.21,62121,16.31,73364.3,-2.77,-3.51,-3.55,0,*50
1530392580.47,62122,16.25,73364.3,-2.77,-3.51,-3.55,0,*53
1530392581.74,62123,16.31,73364.0,-2.77,-3.55,-3.55,0,*56
1530392583.0,62124,16.31,73372.0,-2.77,-3.55,-3.55,0,*51
1530392584.27,62125,16.25,73378.8,-2.77,-3.59,-3.59,0,*50
1530392585.53,62126,16.31,73376.3,-2.77,-3.55,-3.55,0,*53
1530392586.79,62127,16.31,73378.8,-2.77,-3.55,-3.55,0,*52
1530392588.06,62128,16.31,73384.8,-2.77,-3.55,-3.51,0,*59
1530392589.3,62129,16.31,73388.3,-2.79,-3.55,-3.55,0,*52
1530392590.52,62130,16.31,73390.8,-2.79,-3.51,-3.39,0,*54
1530392591.74,62131,16.31,73386.5,-2.79,-3.39,-3.43,0,*56
1530392592.94,62132,16.31,73386.8,-2.79,-3.39,-3.39,0,*58
1530392594.18,62133,16.31,73386.8,-2.79,-3.43,-3.43,0,*59
1530392595.43,62134,16.31,73380.8,-2.79,-3.43,-3.51,0,*5D
1530392596.67,62135,16.25,73380.0,-2.79,-3.51,-3.43,0,*5C
1530392597.87,62136,16.31,73388.8,-2.79,-3.39,-3.39,0,*5C
1530392599.07,62137,16.31,73388.0,-2.79,-3.39,-3.39,0,*5D
1530392600.3,62138,16.25,73384.0,-2.75,-3.39,-3.35,0,*52
1530392601.54,62139,16.25,73376.8,-2.77,-3.39,-3.43,0,*50
1530392602.81,62140,16.31,73386.8,-2.77,-3.43,-3.43,0,*53
1530392604.03,62141,16.31,73382.8,-2.77,-3.39,-3.39,0,*52
1530392605.23,62142,16.31,73380.8,-2.79,-3.39,-3.39,0,*5F
1530392606.43,62143,16.25,73384.8,-2.79,-3.39,-3.39,0,*5E
1530392607.63,62144,16.31,73396.0,-2.79,-3.39,-3.39,0,*59
1530392608.87,62145,16.31,73402.3,-2.79,-3.55,-3.55,0,*58
1530392610.14,62146,16.31,73386.8,-2.77,-3.59,-3.67,0,*58
1530392611.4,62147,16.31,73380.0,-2.77,-3.55,-3.55,0,*54
1530392612.67,62148,16.25,73378.8,-2.77,-3.51,-3.51,0,*5B
1530392613.91,62149,16.31,73376.5,-2.77,-3.43,-3.39,0,*57
1530392615.18,62150,16.31,73366.3,-2.77,-3.43,-3.43,0,*52
1530392616.42,62151,16.31,73368.8,-2.79,-3.43,-3.43,0,*5D
1530392617.68,62152,16.31,73364.5,-2.77,-3.51,-3.55,0,*54
1530392618.95,62153,16.31,73352.3,-2.77,-3.55,-3.51,0,*55
1530392620.21,62154,16.25,73372.8,-2.77,-3.55,-3.51,0,*52
1530392621.48,62155,16.31,73368.0,-2.77,-3.51,-3.51,0,*57
1530392622.75,62156,16.25,73366.3,-2.77,-3.51,-3.43,0,*57
1530392624.01,62157,16.31,73372.5,-2.77,-3.55,-3.55,0,*55
1530392625.28,62158,16.31,73376.0,-2.77,-3.55,-3.51,0,*5E
1530392626.52,62159,16.31,73374.3,-2.79,-3.43,-3.51,0,*56
1530392627.74,62160,16.31,73362.5,-2.79,-3.43,-3.39,0,*52
1530392628.96,62161,16.31,73378.3,-2.79,-3.43,-3.39,0,*53
1530392630.21,62162,16.31,73378.5,-2.79,-3.43,-3.43,0,*5D
1530392631.47,62163,16.25,73352.5,-2.77,-3.43,-3.43,0,*52
1530392632.72,62164,16.31,73358.5,-2.77,-3.43,-3.39,0,*58
1530392633.98,62165,16.31,73352.3,-2.77,-3.43,-3.43,0,*54
1530392635.25,62166,16.25,73348.8,-2.77,-3.51,-3.51,0,*57
1530392636.52,62167,16.31,73364.0,-2.75,-3.51,-3.47,0,*53
1530392637.79,62168,16.31,73372.3,-2.77,-3.51,-3.55,0,*5D
1530392639.05,62169,16.25,73378.0,-2.77,-3.55,-3.55,0,*58
1530392640.31,62170,16.31,73380.0,-2.77,-3.55,-3.55,0,*50
1530392641.58,62171,16.25,73358.8,-2.77,-3.59,-3.59,0,*51
1530392642.84,62172,16.25,73360.5,-2.77,-3.55,-3.55,0,*52
1530392644.11,62173,16.31,73358.3,-2.77,-3.51,-3.51,0,*53
1530392645.38,62174,16.25,73350.8,-2.77,-3.51,-3.51,0,*54
1530392646.64,62175,16.31,73350.5,-2.77,-3.55,-3.55,0,*55
1530392647.9,62176,16.31,73360.3,-2.77,-3.55,-3.55,0,*56
1530392649.17,62177,16.31,73352.5,-2.77,-3.51,-3.51,0,*57
1530392650.44,62178,16.31,73362.8,-2.77,-3.51,-3.51,0,*58
1530392651.66,62179,16.31,73360.8,-2.79,-3.43,-3.39,0,*5A
1530392652.86,62180,16.25,73350.8,-2.79,-3.39,-3.39,0,*51
1530392654.1,62181,16.31,73348.5,-2.79,-3.51,-3.55,0,*54
1530392655.37,62182,16.31,73342.8,-2.77,-3.51,-3.51,0,*5D
1530392656.62,62183,16.31,73352.8,-2.77,-3.43,-3.39,0,*51
1530392657.86,62184,16.31,73362.8,-2.79,-3.43,-3.43,0,*55
1530392659.1,62185,16.31,73330.5,-2.79,-3.55,-3.51,0,*50
1530392660.37,62186,16.25,73330.8,-2.77,-3.51,-3.51,0,*59
1530392661.64,62187,16.31,73332.5,-2.77,-3.43,-3.43,0,*58
1530392662.88,62188,16.25,73332.8,-2.77,-3.43,-3.39,0,*5A
1530392664.15,62189,16.31,73334.5,-2.77,-3.43,-3.51,0,*55
1530392665.39,62190,16.31,73342.3,-2.77,-3.39,-3.51,0,*50
1530392666.64,62191,16.31,73354.0,-2.79,-3.51,-3.43,0,*52
1530392667.86,62192,16.31,73364.0,-2.79,-3.43,-3.39,0,*5F
1530392669.1,62193,16.25,73350.8,-2.79,-3.43,-3.43,0,*53
1530392670.35,62194,16.31,73364.0,-2.79,-3.51,-3.51,0,*54
1530392671.57,62195,16.31,73366.3,-2.77,-3.39,-3.39,0,*5B
1530392672.81,62196,16.31,73356.8,-2.77,-3.39,-3.43,0,*55
1530392674.08,62197,16.31,73378.0,-2.77,-3.51,-3.51,0,*59
1530392675.35,62198,16.31,73364.3,-2.77,-3.43,-3.51,0,*55
1530392676.59,62199,16.31,73362.0,-2.77,-3.39,-3.43,0,*5A
1530392677.81,62200,16.31,73358.0,-2.77,-3.39,-3.39,0,*54
1530392679.07,62201,16.31,73360.3,-2.77,-3.55,-3.55,0,*55
1530392680.34,62202,16.25,73354.5,-2.77,-3.51,-3.55,0,*52
1530392681.6,62203,16.25,73356.8,-2.77,-3.55,-3.55,0,*57
1530392682.86,62204,16.25,73362.5,-2.77,-3.55,-3.55,0,*50
1530392684.13,62205,16.31,73362.3,-2.77,-3.51,-3.51,0,*51
1530392685.4,62206,16.31,73366.5,-2.77,-3.51,-3.55,0,*56
1530392686.64,62207,16.31,73366.8,-2.79,-3.51,-3.43,0,*5E
1530392687.89,62208,16.25,73374.5,-2.79,-3.51,-3.43,0,*51
1530392689.13,62209,16.25,73378.5,-2.79,-3.43,-3.43,0,*53
1530392690.35,62210,16.31,73378.3,-2.79,-3.43,-3.39,0,*56
1530392691.57,62211,16.25,73374.3,-2.79,-3.39,-3.43,0,*57
1530392692.8,62212,16.31,73374.3,-2.75,-3.39,-3.35,0,*59
1530392694.02,62213,16.31,73368.0,-2.77,-3.39,-3.39,0,*56
1530392695.24,62214,16.31,73374.0,-2.77,-3.31,-3.31,0,*51
1530392696.44,62215,16.25,73368.3,-2.79,-3.31,-3.31,0,*5E
1530392697.67,62216,16.25,73368.3,-2.77,-3.31,-3.27,0,*54
1530392698.89,62217,16.25,73368.3,-2.77,-3.31,-3.27,0,*55
1530392700.11,62218,16.31,73378.3,-2.75,-3.23,-3.23,0,*5F
1530392701.34,62219,16.31,73380.5,-2.75,-3.27,-3.27,0,*5E
1530392702.55,62220,16.25,73376.8,-2.75,-3.23,-3.23,0,*54
1530392703.78,62221,16.31,73382.3,-2.77,-3.31,-3.27,0,*50
1530392705.01,62222,16.25,73374.5,-2.75,-3.35,-3.27,0,*55
1530392706.24,62223,16.31,73368.8,-2.77,-3.31,-3.39,0,*5D
1530392707.49,62224,16.31,73366.5,-2.75,-3.47,-3.39,0,*59
1530392708.76,62225,16.25,73370.5,-2.77,-3.51,-3.43,0,*50
1530392709.98,62226,16.31,73374.5,-2.75,-3.39,-3.39,0,*52
1530392711.21,62227,16.25,73378.8,-2.77,-3.39,-3.39,0,*51
1530392712.43,62228,16.25,73382.5,-2.77,-3.39,-3.39,0,*5E
1530392713.65,62229,16.31,73376.3,-2.77,-3.39,-3.39,0,*5F
1530392714.9,62230,16.31,73376.5,-2.75,-3.47,-3.39,0,*5C
1530392716.18,62231,16.25,73380.5,-2.75,-3.51,-3.51,0,*54
1530392717.44,62232,16.25,73390.0,-2.77,-3.51,-3.51,0,*55
1530392718.69,62233,16.31,73378.8,-2.77,-3.43,-3.39,0,*59
1530392719.93,62234,16.25,73370.8,-2.77,-3.39,-3.43,0,*5E
1530392721.16,62235,16.25,73364.5,-2.75,-3.35,-3.35,0,*50
1530392722.39,62236,16.25,73360.5,-2.75,-3.35,-3.35,0,*53
1530392723.62,62237,16.25,73374.8,-2.75,-3.39,-3.39,0,*52
1530392724.86,62238,16.25,73374.3,-2.77,-3.39,-3.43,0,*52
1530392726.09,62239,16.31,73370.8,-2.75,-3.39,-3.39,0,*5C
1530392727.36,62240,16.31,73368.0,-2.75,-3.47,-3.47,0,*52
1530392728.63,62241,16.25,73368.0,-2.75,-3.51,-3.51,0,*53
1530392729.89,62242,16.25,73364.5,-2.77,-3.55,-3.55,0,*52
1530392731.16,62243,16.25,73370.5,-2.77,-3.51,-3.51,0,*53
1530392732.43,62244,16.31,73370.8,-2.75,-3.47,-3.47,0,*56
1530392733.7,62245,16.25,73372.0,-2.77,-3.51,-3.51,0,*55
1530392734.96,62246,16.25,73374.5,-2.77,-3.55,-3.51,0,*52
1530392736.24,62247,16.31,73378.3,-2.75,-3.51,-3.51,0,*55
1530392737.51,62248,16.25,73376.5,-2.77,-3.51,-3.43,0,*5B
1530392738.76,62249,16.25,73376.3,-2.75,-3.47,-3.35,0,*5E
1530392739.99,62250,16.31,73378.3,-2.75,-3.39,-3.27,0,*5C
1530392741.23,62251,16.25,73366.0,-2.77,-3.43,-3.39,0,*5D
1530392742.46,62252,16.25,73364.8,-2.75,-3.39,-3.35,0,*5D
1530392743.73,62253,16.25,73372.5,-2.77,-3.51,-3.51,0,*52
1530392745.0,62254,16.25,73378.3,-2.77,-3.51,-3.55,0,*51
1530392746.24,62255,16.31,73378.5,-2.77,-3.39,-3.43,0,*59
1530392747.51,62256,16.25,73374.0,-2.75,-3.47,-3.47,0,*55
1530392748.78,62257,16.31,73380.8,-2.77,-3.43,-3.43,0,*56
1530392750.0,62258,16.25,73380.3,-2.75,-3.39,-3.39,0,*5B
1530392751.23,62259,16.25,73384.5,-2.75,-3.27,-3.27,0,*5A
1530392752.47,62260,16.25,73384.8,-2.75,-3.27,-3.27,0,*50
1530392753.69,62261,16.25,73388.3,-2.75,-3.27,-3.23,0,*55
1530392754.92,62262,16.25,73390.5,-2.77,-3.27,-3.27,0,*50
1530392756.14,62263,16.25,73390.0,-2.75,-3.27,-3.23,0,*57
1530392757.37,62264,16.25,73388.3,-2.75,-3.27,-3.35,0,*57
1530392758.6,62265,16.25,73390.3,-2.75,-3.35,-3.27,0,*56
1530392759.83,62266,16.31,73390.3,-2.75,-3.35,-3.27,0,*55
1530392761.05,62267,16.25,73384.5,-2.75,-3.27,-3.23,0,*53
1530392762.28,62268,16.25,73380.8,-2.75,-3.27,-3.27,0,*58
1530392763.5,62269,16.25,73380.3,-2.77,-3.39,-3.31,0,*53
1530392764.73,62270,16.25,73380.3,-2.75,-3.35,-3.35,0,*51
1530392765.95,62271,16.31,73386.0,-2.75,-3.35,-3.23,0,*57
1530392767.18,62272,16.25,73382.8,-2.75,-3.27,-3.23,0,*57
1530392768.39,62273,16.25,73382.3,-2.75,-3.23,-3.23,0,*52
1530392769.62,62274,16.25,73380.3,-2.75,-3.27,-3.15,0,*54
1530392770.85,62275,16.25,73372.5,-2.75,-3.27,-3.27,0,*54
1530392772.08,62276,16.25,73372.0,-2.75,-3.35,-3.27,0,*54
1530392773.31,62277,16.25,73370.3,-2.75,-3.35,-3.27,0,*55
1530392774.53,62278,16.25,73372.0,-2.75,-3.27,-3.23,0,*5D
1530392775.72,62279,16.25,73372.8,-2.73,-3.23,-3.23,0,*5E
1530392776.91,62280,16.25,73368.5,-2.73,-3.27,-3.23,0,*5C
1530392778.13,62281,16.25,73376.3,-2.75,-3.35,-3.23,0,*58
1530392779.33,62282,16.25,73378.0,-2.73,-3.23,-3.27,0,*5E
1530392780.53,62283,16.25,73376.3,-2.73,-3.27,-3.27,0,*5B
1530392781.72,62284,16.25,73374.8,-2.69,-3.23,-3.23,0,*57
1530392782.92,62285,16.31,73382.0,-2.73,-3.27,-3.27,0,*5D
1530392784.12,62286,16.25,73382.8,-2.73,-3.23,-3.27,0,*5A
1530392785.31,62287,16.25,73384.5,-2.69,-3.19,-3.23,0,*5D
1530392786.51,62288,16.25,73384.0,-2.69,-3.11,-3.19,0,*53
1530392787.7,62289,16.25,73384.5,-2.73,-3.23,-3.15,0,*54
1530392788.89,62290,16.25,73382.5,-2.73,-3.23,-3.15,0,*5C
1530392790.08,62291,16.31,73386.8,-2.73,-3.15,-3.15,0,*58
1530392791.28,62292,16.25,73380.3,-2.73,-3.15,-3.15,0,*5B
1530392792.47,62293,16.25,73380.0,-2.73,-3.15,-3.15,0,*5A
1530392793.67,62294,16.25,73380.8,-2.69,-3.19,-3.19,0,*56
1530392794.86,62295,16.25,73376.8,-2.73,-3.19,-3.19,0,*5C
1530392796.05,62296,16.25,73376.3,-2.69,-3.19,-3.23,0,*5D
1530392797.24,62297,16.31,73374.5,-2.73,-3.23,-3.19,0,*57
1530392798.43,62298,16.25,73372.0,-2.69,-3.23,-3.23,0,*5A
1530392799.63,62299,16.25,73370.5,-2.73,-3.27,-3.23,0,*54
1530392800.81,62300,16.25,73378.5,-2.73,-3.23,-3.23,0,*51
1530392802.0,62301,16.25,73382.3,-2.73,-3.23,-3.23,0,*50
1530392803.19,62302,16.31,73380.8,-2.69,-3.23,-3.19,0,*51
1530392804.39,62303,16.25,73376.8,-2.69,-3.19,-3.19,0,*59
1530392805.59,62304,16.25,73366.0,-2.69,-3.31,-3.31,0,*5E
1530392806.79,62305,16.25,73374.3,-2.73,-3.39,-3.35,0,*58
1530392807.99,62306,16.25,73380.5,-2.69,-3.31,-3.35,0,*58
1530392809.19,62307,16.25,73390.3,-2.69,-3.31,-3.31,0,*5D
1530392810.39,62308,16.25,73388.5,-2.69,-3.31,-3.23,0,*51
1530392811.58,62309,16.25,73378.3,-2.69,-3.23,-3.23,0,*53
1530392812.78,62310,16.25,73372.5,-2.73,-3.35,-3.35,0,*50
1530392813.98,62311,16.25,73356.5,-2.69,-3.31,-3.31,0,*5A
1530392815.18,62312,16.25,73356.5,-2.73,-3.35,-3.35,0,*52
1530392816.39,62313,16.25,73360.5,-2.69,-3.35,-3.35,0,*58
1530392817.59,62314,16.25,73364.3,-2.73,-3.35,-3.27,0,*57
1530392818.79,62315,16.25,73370.8,-2.73,-3.27,-3.35,0,*56
1530392819.98,62316,16.25,73386.0,-2.69,-3.23,-3.23,0,*5D
1530392821.18,62317,16.25,73390.5,-2.73,-3.39,-3.39,0,*57
1530392822.38,62318,16.25,73388.5,-2.69,-3.31,-3.31,0,*53
1530392823.58,62319,16.25,73386.5,-2.69,-3.35,-3.31,0,*56
1530392824.78,62320,16.25,73386.8,-2.69,-3.35,-3.23,0,*5F
1530392825.98,62321,16.25,73384.3,-2.69,-3.31,-3.23,0,*5A
1530392827.17,62322,16.25,73376.3,-2.69,-3.31,-3.23,0,*59
1530392828.38,62323,16.25,73356.8,-2.69,-3.35,-3.31,0,*5F
1530392829.63,62324,16.25,73358.8,-2.69,-3.47,-3.43,0,*58
1530392830.87,62325,16.25,73378.8,-2.69,-3.59,-3.63,0,*54
1530392832.11,62326,16.25,73384.3,-2.73,-3.63,-3.55,0,*50
1530392833.36,62327,16.25,73386.3,-2.73,-3.63,-3.55,0,*51
1530392834.6,62328,16.25,73394.0,-2.73,-3.55,-3.51,0,*5F
1530392835.84,62329,16.25,73390.0,-2.69,-3.43,-3.43,0,*51
1530392837.08,62330,16.25,73384.5,-2.73,-3.51,-3.47,0,*55
1530392838.33,62331,16.25,73368.8,-2.69,-3.47,-3.47,0,*58
1530392839.57,62332,16.25,73370.5,-2.73,-3.55,-3.55,0,*50
1530392840.82,62333,16.25,73376.8,-2.69,-3.51,-3.51,0,*5A
1530392842.06,62334,16.25,73386.5,-2.73,-3.51,-3.51,0,*56
1530392843.3,62335,16.25,73394.5,-2.73,-3.51,-3.51,0,*57
1530392844.55,62336,16.25,73394.0,-2.73,-3.51,-3.51,0,*54
1530392845.77,62337,16.25,73390.0,-2.73,-3.75,-3.67,0,*56
1530392846.98,62338,16.31,73388.8,-2.73,-3.75,-3.75,0,*5A
1530392848.18,62339,16.25,73378.0,-2.73,-3.79,-3.79,0,*5B
1530392849.4,62340,16.31,73378.5,-2.73,-3.67,-3.79,0,*5A
1530392850.64,62341,16.31,73376.3,-2.75,-3.79,-3.79,0,*52
1530392851.88,62342,16.25,73378.8,-2.75,-3.79,-3.75,0,*5D
1530392853.1,62343,16.25,73380.8,-2.75,-3.87,-3.87,0,*50
1530392854.32,62344,16.25,73382.3,-2.77,-3.95,-3.95,0,*55
1530392855.55,62345,16.25,73382.8,-2.77,-3.91,-3.83,0,*57
1530392856.8,62346,16.25,73378.0,-2.77,-3.79,-3.71,0,*5F
1530392858.04,62347,16.25,73384.3,-2.79,-3.71,-3.71,0,*58
1530392859.29,62348,16.25,73380.3,-2.79,-3.59,-3.59,0,*57
1530392860.53,62349,16.25,73376.0,-2.79,-3.59,-3.67,0,*5B
1530392861.78,62350,16.25,73368.3,-2.79,-3.59,-3.59,0,*5E
1530392863.05,62351,16.25,73372.3,-2.77,-3.55,-3.59,0,*5D
1530392864.3,62352,16.25,73372.5,-2.79,-3.55,-3.59,0,*50
1530392865.56,62353,16.25,73374.8,-2.81,-3.71,-3.63,0,*59
1530392866.8,62354,16.25,73372.5,-2.79,-3.71,-3.67,0,*5D
1530392868.04,62355,16.25,73384.3,-2.79,-3.59,-3.59,0,*5B
1530392869.29,62356,16.25,73382.3,-2.79,-3.55,-3.59,0,*54
1530392870.54,62357,16.25,73382.3,-2.79,-3.59,-3.59,0,*59
1530392871.8,62358,16.25,73394.0,-2.81,-3.63,-3.63,0,*51
1530392873.04,62359,16.25,73384.3,-2.79,-3.55,-3.55,0,*57
1530392874.28,62360,16.25,73382.0,-2.79,-3.55,-3.55,0,*5D
1530392875.52,62361,16.25,73382.5,-2.79,-3.55,-3.51,0,*58
1530392876.76,62362,16.25,73388.8,-2.79,-3.55,-3.55,0,*5F
1530392878.0,62363,16.25,73386.0,-2.79,-3.51,-3.51,0,*5E
1530392879.25,62364,16.25,73384.8,-2.79,-3.51,-3.51,0,*59
1530392880.47,62365,16.25,73378.8,-2.79,-3.51,-3.39,0,*56
1530392881.72,62366,16.25,73386.5,-2.79,-3.43,-3.43,0,*5B
1530392882.98,62367,16.25,73384.0,-2.81,-3.55,-3.59,0,*51
1530392884.23,62368,16.25,73382.5,-2.79,-3.51,-3.43,0,*56
1530392885.47,62369,16.25,73384.8,-2.79,-3.55,-3.43,0,*53
1530392886.72,62370,16.25,73386.3,-2.79,-3.51,-3.43,0,*5F
1530392887.96,62371,16.25,73386.3,-2.79,-3.55,-3.51,0,*59
1530392889.2,62372,16.25,73384.3,-2.79,-3.51,-3.43,0,*5D
1530392890.45,62373,16.25,73394.3,-2.79,-3.43,-3.43,0,*5F
1530392891.64,62374,16.25,73396.8,-2.79,-3.39,-3.39,0,*58
1530392892.84,62375,16.25,73392.5,-2.79,-3.39,-3.31,0,*51
1530392894.06,62376,16.25,73398.0,-2.79,-3.39,-3.43,0,*57
1530392895.31,62377,16.25,73404.0,-2.77,-3.43,-3.39,0,*58
1530392896.53,62378,16.25,73404.5,-2.77,-3.39,-3.39,0,*5A
1530392897.77,62379,16.25,73382.5,-2.77,-3.43,-3.39,0,*56
1530392899.04,62380,16.25,73376.5,-2.77,-3.51,-3.47,0,*5A
1530392900.31,62381,16.25,73384.3,-2.77,-3.51,-3.51,0,*5C
1530392901.55,62382,16.25,73392.3,-2.79,-3.55,-3.51,0,*55
1530392902.82,62383,16.25,73404.3,-2.77,-3.51,-3.51,0,*5E
1530392904.09,62384,16.25,73390.5,-2.77,-3.43,-3.43,0,*59
1530392905.35,62385,16.25,73388.5,-2.77,-3.55,-3.43,0,*5F
1530392906.62,62386,16.25,73400.3,-2.77,-3.51,-3.43,0,*58
1530392907.88,62387,16.25,73376.3,-2.77,-3.55,-3.51,0,*5E
1530392909.15,62388,16.25,73358.5,-2.77,-3.51,-3.51,0,*55
1530392910.41,62389,16.25,73378.0,-2.77,-3.55,-3.55,0,*54
1530392911.68,62390,16.25,73384.5,-2.77,-3.51,-3.55,0,*58
1530392912.95,62391,16.25,73382.3,-2.75,-3.47,-3.47,0,*5F